QPF
0.01 0.01 0.01 0.01 0.01 0.02 0.02 0.02 0.02 0.02 0.01 0.02 0.02 0.02 0.02 0.01 0.02 0.01 0.01 0.01 0.01 0.02 0.03 0.03 0.01 0.01 0.01 0.01 0.01 0.01 0.01 0.01 0.01 0.01 0.01 0.01 0.02 0.03 0.03 0.04 0.03 0.03 0.03
0.01 0.01 0.01 0.02 0.02 0.02 0.02 0.03 0.03 0.03 0.02 0.02 0.02 0.01 0.01 0.02 0.02 0.02 0.02 0.02 0.01 0.02 0.03 0.02 0.01 0.01 0.01 0.01 0.01 0.01 0.00 0.00 0.00 0.01 0.01 0.01 0.01 0.01 0.02 0.03 0.02 0.03 0.03
0.01 0.00 0.01 0.02 0.03 0.02 0.03 0.02 0.02 0.03 0.02 0.02 0.01 0.01 0.01 0.02 0.02 0.02 0.03 0.02 0.01 0.02 0.03 0.03 0.01 0.01 0.01 0.01 0.01 0.00 0.00 0.00 0.00 0.00 0.00 0.00 0.01 0.01 0.01 0.02 0.02 0.03 0.03
0.00 0.00 0.01 0.02 0.03 0.02 0.02 0.02 0.03 0.03 0.03 0.03 0.01 0.01 0.01 0.02 0.02 0.02 0.03 0.03 0.02 0.03 0.03 0.02 0.01 0.00 0.01 0.01 0.01 0.00 0.00 0.00 0.00 0.00 0.01 0.01 0.01 0.01 0.01 0.01 0.02 0.02 0.03
0.00 0.00 0.01 0.02 0.03 0.02 0.02 0.03 0.04 0.04 0.05 0.04 0.03 0.02 0.02 0.02 0.02 0.03 0.04 0.04 0.03 0.02 0.03 0.03 0.01 0.01 0.01 0.00 0.00 0.00 0.00 0.00 0.00 0.01 0.02 0.01 0.01 0.01 0.01 0.01 0.01 0.01 0.01
0.01 0.01 0.01 0.03 0.03 0.03 0.03 0.03 0.04 0.06 0.06 0.04 0.03 0.02 0.02 0.03 0.02 0.03 0.04 0.03 0.02 0.02 0.02 0.02 0.02 0.01 0.01 0.00 0.00 0.00 0.00 0.00 0.00 0.01 0.02 0.02 0.01 0.02 0.01 0.01 0.01 0.01 0.01
0.01 0.02 0.01 0.02 0.04 0.04 0.03 0.03 0.04 0.05 0.06 0.05 0.04 0.03 0.03 0.03 0.02 0.03 0.04 0.02 0.02 0.04 0.04 0.02 0.02 0.01 0.01 0.00 0.01 0.01 0.00 0.00 0.00 0.01 0.02 0.02 0.02 0.02 0.01 0.01 0.01 0.01 0.01
0.02 0.02 0.02 0.03 0.04 0.05 0.05 0.04 0.04 0.05 0.06 0.07 0.06 0.04 0.03 0.03 0.02 0.03 0.03 0.02 0.03 0.03 0.04 0.03 0.02 0.02 0.01 0.01 0.00 0.00 0.00 0.00 0.00 0.01 0.03 0.02 0.02 0.02 0.01 0.01 0.01 0.01 0.01
0.02 0.04 0.04 0.05 0.06 0.09 0.08 0.06 0.04 0.04 0.05 0.06 0.06 0.05 0.04 0.04 0.03 0.03 0.02 0.02 0.02 0.02 0.02 0.03 0.02 0.03 0.02 0.01 0.00 0.00 0.00 0.00 0.01 0.02 0.02 0.02 0.02 0.01 0.01 0.01 0.01 0.01 0.01
0.03 0.05 0.05 0.05 0.07 0.08 0.08 0.08 0.06 0.05 0.05 0.06 0.07 0.05 0.03 0.03 0.04 0.03 0.02 0.01 0.01 0.02 0.02 0.02 0.02 0.02 0.02 0.01 0.01 0.00 0.00 0.00 0.01 0.03 0.02 0.01 0.01 0.01 0.01 0.01 0.01 0.01 0.01
0.04 0.05 0.05 0.06 0.07 0.08 0.09 0.07 0.06 0.05 0.05 0.06 0.06 0.07 0.05 0.04 0.04 0.03 0.02 0.02 0.01 0.02 0.02 0.02 0.02 0.02 0.02 0.01 0.00 0.00 0.01 0.01 0.02 0.04 0.02 0.02 0.02 0.02 0.01 0.01 0.01 0.01 0.01
0.03 0.04 0.05 0.05 0.07 0.09 0.08 0.09 0.08 0.05 0.05 0.05 0.05 0.05 0.05 0.04 0.04 0.02 0.02 0.01 0.01 0.01 0.02 0.02 0.02 0.02 0.02 0.01 0.01 0.00 0.01 0.01 0.04 0.05 0.03 0.03 0.03 0.02 0.02 0.02 0.02 0.01 0.01
0.03 0.05 0.06 0.07 0.08 0.08 0.08 0.08 0.09 0.06 0.06 0.06 0.05 0.05 0.07 0.06 0.04 0.04 0.02 0.01 0.01 0.01 0.01 0.03 0.03 0.03 0.03 0.03 0.02 0.01 0.01 0.02 0.05 0.06 0.05 0.05 0.04 0.02 0.02 0.01 0.01 0.01 0.01
0.04 0.06 0.06 0.07 0.08 0.09 0.08 0.08 0.08 0.07 0.04 0.05 0.05 0.05 0.05 0.05 0.04 0.03 0.02 0.01 0.01 0.01 0.01 0.02 0.04 0.05 0.04 0.03 0.02 0.01 0.01 0.03 0.07 0.08 0.08 0.05 0.03 0.02 0.02 0.01 0.01 0.01 0.01
0.04 0.05 0.06 0.07 0.09 0.10 0.09 0.09 0.08 0.07 0.05 0.05 0.05 0.05 0.04 0.04 0.03 0.03 0.02 0.02 0.02 0.01 0.01 0.01 0.01 0.02 0.03 0.02 0.01 0.01 0.01 0.03 0.07 0.07 0.05 0.03 0.02 0.01 0.01 0.01 0.01 0.01 0.01
0.03 0.04 0.05 0.07 0.08 0.09 0.10 0.10 0.08 0.08 0.07 0.07 0.07 0.06 0.05 0.04 0.03 0.03 0.02 0.02 0.02 0.02 0.02 0.01 0.01 0.01 0.02 0.02 0.01 0.01 0.01 0.02 0.03 0.04 0.03 0.02 0.01 0.01 0.01 0.01 0.01 0.01 0.01
0.03 0.04 0.05 0.07 0.08 0.09 0.09 0.09 0.07 0.08 0.08 0.08 0.09 0.08 0.07 0.06 0.04 0.03 0.03 0.03 0.03 0.03 0.02 0.02 0.01 0.02 0.02 0.01 0.01 0.01 0.01 0.01 0.01 0.02 0.02 0.01 0.01 0.01 0.01 0.01 0.01 0.01 0.02
0.03 0.04 0.06 0.06 0.07 0.09 0.11 0.11 0.08 0.07 0.07 0.06 0.08 0.08 0.09 0.08 0.07 0.05 0.04 0.04 0.04 0.03 0.03 0.02 0.01 0.01 0.02 0.02 0.02 0.01 0.01 0.01 0.01 0.01 0.01 0.01 0.01 0.01 0.01 0.01 0.01 0.01 0.01
0.02 0.02 0.04 0.05 0.06 0.08 0.11 0.12 0.09 0.07 0.06 0.05 0.05 0.07 0.07 0.07 0.07 0.06 0.05 0.04 0.04 0.04 0.04 0.02 0.02 0.01 0.01 0.01 0.02 0.03 0.02 0.01 0.01 0.01 0.01 0.01 0.01 0.01 0.01 0.01 0.01 0.01 0.01
0.03 0.02 0.03 0.04 0.05 0.08 0.13 0.15 0.12 0.09 0.07 0.05 0.05 0.05 0.06 0.05 0.05 0.05 0.05 0.04 0.05 0.05 0.04 0.03 0.02 0.01 0.01 0.02 0.01 0.02 0.02 0.01 0.01 0.01 0.01 0.01 0.01 0.01 0.01 0.01 0.01 0.01 0.01
0.03 0.03 0.03 0.04 0.05 0.07 0.10 0.14 0.11 0.08 0.07 0.05 0.04 0.04 0.05 0.06 0.06 0.05 0.05 0.05 0.05 0.05 0.04 0.04 0.03 0.02 0.02 0.02 0.02 0.02 0.02 0.02 0.01 0.01 0.01 0.01 0.01 0.01 0.01 0.01 0.01 0.01 0.01
0.03 0.03 0.03 0.04 0.06 0.07 0.08 0.10 0.09 0.07 0.06 0.05 0.04 0.04 0.05 0.06 0.06 0.06 0.06 0.06 0.06 0.06 0.05 0.05 0.04 0.02 0.02 0.02 0.02 0.01 0.01 0.02 0.02 0.01 0.01 0.02 0.02 0.01 0.01 0.01 0.01 0.01 0.01
0.04 0.04 0.05 0.05 0.07 0.07 0.08 0.09 0.09 0.07 0.07 0.06 0.05 0.04 0.04 0.05 0.06 0.06 0.07 0.07 0.07 0.07 0.06 0.05 0.04 0.03 0.02 0.01 0.02 0.02 0.02 0.01 0.01 0.01 0.01 0.02 0.02 0.02 0.01 0.01 0.01 0.01 0.01
0.04 0.05 0.07 0.06 0.08 0.08 0.09 0.08 0.07 0.06 0.06 0.06 0.05 0.04 0.04 0.05 0.06 0.06 0.07 0.08 0.07 0.07 0.07 0.05 0.04 0.03 0.03 0.02 0.02 0.02 0.01 0.01 0.01 0.01 0.01 0.02 0.02 0.02 0.01 0.01 0.02 0.02 0.02
0.03 0.04 0.07 0.07 0.07 0.07 0.09 0.08 0.06 0.06 0.06 0.06 0.05 0.05 0.05 0.05 0.05 0.06 0.07 0.07 0.06 0.05 0.06 0.05 0.05 0.04 0.03 0.03 0.02 0.02 0.01 0.01 0.00 0.01 0.01 0.02 0.02 0.02 0.02 0.01 0.01 0.01 0.02
0.03 0.03 0.06 0.08 0.06 0.06 0.08 0.08 0.06 0.06 0.06 0.07 0.06 0.06 0.05 0.05 0.05 0.05 0.05 0.05 0.05 0.04 0.04 0.05 0.05 0.05 0.04 0.03 0.03 0.02 0.01 0.01 0.01 0.01 0.01 0.01 0.01 0.02 0.02 0.02 0.02 0.01 0.01
MSLP
1008.67 1008.69 1008.89 1009.24 1009.71 1010.24 1010.76 1011.24 1011.64 1011.97 1012.23 1012.47 1012.72 1012.98 1013.28 1013.60 1013.91 1014.21 1014.47 1014.68 1014.86 1015.01 1015.15 1015.30 1015.47 1015.65 1015.83 1016.01 1016.18 1016.34 1016.49 1016.64 1016.82 1017.03 1017.26 1017.50 1017.74 1017.93 1018.07 1018.14 1018.15 1018.11 1018.07
1008.54 1008.61 1008.85 1009.25 1009.75 1010.29 1010.81 1011.26 1011.64 1011.96 1012.23 1012.50 1012.79 1013.11 1013.47 1013.84 1014.19 1014.51 1014.76 1014.95 1015.10 1015.23 1015.37 1015.52 1015.71 1015.93 1016.15 1016.37 1016.56 1016.73 1016.88 1017.02 1017.18 1017.36 1017.58 1017.81 1018.04 1018.25 1018.41 1018.50 1018.54 1018.52 1018.50
1008.38 1008.50 1008.80 1009.26 1009.80 1010.36 1010.88 1011.33 1011.69 1011.99 1012.26 1012.54 1012.85 1013.20 1013.59 1013.99 1014.36 1014.67 1014.92 1015.10 1015.23 1015.35 1015.50 1015.67 1015.90 1016.15 1016.42 1016.68 1016.90 1017.09 1017.24 1017.38 1017.52 1017.68 1017.88 1018.10 1018.33 1018.54 1018.71 1018.82 1018.89 1018.91 1018.91
1008.20 1008.38 1008.75 1009.27 1009.86 1010.45 1010.99 1011.43 1011.79 1012.07 1012.33 1012.60 1012.91 1013.28 1013.67 1014.07 1014.44 1014.75 1014.99 1015.16 1015.30 1015.43 1015.59 1015.80 1016.06 1016.35 1016.66 1016.95 1017.21 1017.41 1017.57 1017.71 1017.84 1017.99 1018.17 1018.38 1018.60 1018.81 1018.99 1019.12 1019.21 1019.27 1019.30
1008.04 1008.27 1008.71 1009.28 1009.92 1010.55 1011.10 1011.56 1011.91 1012.19 1012.43 1012.70 1013.00 1013.35 1013.74 1014.13 1014.50 1014.80 1015.04 1015.22 1015.38 1015.53 1015.72 1015.96 1016.25 1016.57 1016.90 1017.21 1017.47 1017.69 1017.86 1018.00 1018.14 1018.29 1018.47 1018.67 1018.89 1019.10 1019.28 1019.43 1019.55 1019.63 1019.70
1007.92 1008.20 1008.67 1009.29 1009.96 1010.62 1011.20 1011.67 1012.03 1012.31 1012.56 1012.82 1013.11 1013.46 1013.83 1014.21 1014.57 1014.88 1015.14 1015.34 1015.53 1015.72 1015.95 1016.21 1016.52 1016.84 1017.17 1017.47 1017.72 1017.93 1018.10 1018.25 1018.40 1018.57 1018.76 1018.98 1019.20 1019.41 1019.60 1019.76 1019.90 1020.01 1020.10
1007.88 1008.17 1008.66 1009.29 1009.98 1010.65 1011.24 1011.73 1012.11 1012.41 1012.68 1012.95 1013.26 1013.60 1013.98 1014.35 1014.71 1015.03 1015.31 1015.56 1015.79 1016.03 1016.28 1016.57 1016.87 1017.18 1017.47 1017.73 1017.95 1018.13 1018.30 1018.45 1018.62 1018.82 1019.05 1019.28 1019.53 1019.75 1019.95 1020.12 1020.27 1020.39 1020.51
1007.93 1008.21 1008.68 1009.29 1009.96 1010.62 1011.21 1011.72 1012.13 1012.48 1012.79 1013.10 1013.43 1013.80 1014.18 1014.57 1014.94 1015.28 1015.59 1015.88 1016.16 1016.44 1016.72 1017.01 1017.29 1017.56 1017.79 1017.99 1018.15 1018.30 1018.45 1018.61 1018.81 1019.05 1019.31 1019.59 1019.86 1020.10 1020.31 1020.49 1020.64 1020.77 1020.90
1008.07 1008.31 1008.73 1009.29 1009.91 1010.53 1011.11 1011.63 1012.09 1012.49 1012.86 1013.24 1013.63 1014.03 1014.45 1014.85 1015.24 1015.60 1015.95 1016.27 1016.59 1016.90 1017.21 1017.49 1017.75 1017.96 1018.12 1018.24 1018.34 1018.44 1018.56 1018.73 1018.95 1019.23 1019.55 1019.87 1020.17 1020.44 1020.66 1020.83 1020.98 1021.12 1021.25
1008.27 1008.47 1008.83 1009.30 1009.85 1010.42 1010.97 1011.50 1011.99 1012.46 1012.92 1013.38 1013.84 1014.30 1014.75 1015.18 1015.58 1015.96 1016.32 1016.68 1017.03 1017.37 1017.68 1017.96 1018.18 1018.34 1018.43 1018.48 1018.51 1018.56 1018.66 1018.83 1019.07 1019.39 1019.74 1020.10 1020.44 1020.72 1020.95 1021.12 1021.27 1021.40 1021.53
1008.52 1008.67 1008.96 1009.35 1009.81 1010.31 1010.83 1011.36 1011.89 1012.43 1012.97 1013.52 1014.06 1014.58 1015.07 1015.51 1015.93 1016.31 1016.69 1017.05 1017.42 1017.77 1018.09 1018.36 1018.56 1018.68 1018.72 1018.71 1018.68 1018.69 1018.76 1018.92 1019.18 1019.52 1019.90 1020.28 1020.63 1020.93 1021.15 1021.32 1021.46 1021.59 1021.72
1008.78 1008.91 1009.13 1009.45 1009.83 1010.27 1010.74 1011.26 1011.82 1012.42 1013.04 1013.67 1014.28 1014.86 1015.38 1015.84 1016.25 1016.63 1016.99 1017.36 1017.72 1018.08 1018.40 1018.67 1018.86 1018.96 1018.98 1018.93 1018.87 1018.85 1018.90 1019.05 1019.30 1019.64 1020.02 1020.41 1020.75 1021.04 1021.26 1021.42 1021.55 1021.67 1021.81
1009.00 1009.13 1009.33 1009.60 1009.92 1010.31 1010.75 1011.26 1011.83 1012.47 1013.14 1013.83 1014.50 1015.12 1015.66 1016.13 1016.54 1016.90 1017.24 1017.59 1017.94 1018.29 1018.62 1018.90 1019.10 1019.20 1019.22 1019.17 1019.10 1019.06 1019.10 1019.23 1019.46 1019.77 1020.13 1020.48 1020.81 1021.07 1021.27 1021.41 1021.53 1021.65 1021.81
1009.12 1009.30 1009.52 1009.79 1010.10 1010.45 1010.87 1011.36 1011.94 1012.59 1013.29 1014.01 1014.71 1015.35 1015.91 1016.38 1016.77 1017.11 1017.43 1017.75 1018.09 1018.44 1018.78 1019.07 1019.29 1019.42 1019.46 1019.43 1019.38 1019.34 1019.36 1019.46 1019.65 1019.92 1020.22 1020.53 1020.81 1021.03 1021.20 1021.32 1021.44 1021.56 1021.72
1009.12 1009.38 1009.67 1009.99 1010.33 1010.69 1011.10 1011.59 1012.15 1012.78 1013.48 1014.21 1014.91 1015.55 1016.11 1016.57 1016.95 1017.27 1017.57 1017.88 1018.20 1018.54 1018.89 1019.20 1019.45 1019.62 1019.70 1019.71 1019.69 1019.66 1019.68 1019.75 1019.90 1020.10 1020.33 1020.57 1020.78 1020.96 1021.09 1021.20 1021.30 1021.43 1021.60
1008.95 1009.33 1009.74 1010.16 1010.58 1010.99 1011.42 1011.90 1012.44 1013.04 1013.71 1014.39 1015.07 1015.70 1016.25 1016.70 1017.08 1017.40 1017.69 1017.99 1018.30 1018.64 1018.99 1019.32 1019.60 1019.82 1019.95 1020.01 1020.03 1020.02 1020.03 1020.08 1020.18 1020.31 1020.47 1020.63 1020.77 1020.89 1020.99 1021.08 1021.18 1021.31 1021.48
1008.61 1009.14 1009.70 1010.26 1010.79 1011.29 1011.77 1012.26 1012.77 1013.33 1013.93 1014.56 1015.18 1015.78 1016.31 1016.77 1017.16 1017.50 1017.80 1018.10 1018.42 1018.75 1019.10 1019.44 1019.74 1019.99 1020.17 1020.29 1020.34 1020.37 1020.39 1020.42 1020.48 1020.55 1020.64 1020.73 1020.81 1020.88 1020.95 1021.02 1021.11 1021.23 1021.40
1008.15 1008.80 1009.53 1010.25 1010.93 1011.54 1012.09 1012.60 1013.09 1013.59 1014.12 1014.67 1015.24 1015.79 1016.31 1016.78 1017.20 1017.56 1017.89 1018.21 1018.53 1018.87 1019.21 1019.55 1019.86 1020.14 1020.35 1020.51 1020.62 1020.68 1020.72 1020.75 1020.78 1020.81 1020.85 1020.88 1020.92 1020.95 1020.99 1021.05 1021.13 1021.25 1021.39
1007.59 1008.35 1009.22 1010.11 1010.95 1011.69 1012.33 1012.88 1013.35 1013.81 1014.26 1014.73 1015.23 1015.74 1016.25 1016.74 1017.19 1017.59 1017.97 1018.31 1018.65 1018.98 1019.31 1019.64 1019.95 1020.23 1020.47 1020.66 1020.82 1020.92 1021.00 1021.04 1021.07 1021.09 1021.10 1021.10 1021.11 1021.13 1021.16 1021.20 1021.28 1021.38 1021.50
1007.02 1007.83 1008.81 1009.84 1010.83 1011.71 1012.44 1013.04 1013.52 1013.94 1014.33 1014.74 1015.18 1015.65 1016.15 1016.66 1017.15 1017.61 1018.03 1018.41 1018.76 1019.08 1019.39 1019.69 1019.98 1020.26 1020.51 1020.74 1020.93 1021.08 1021.20 1021.29 1021.34 1021.37 1021.38 1021.39 1021.39 1021.41 1021.44 1021.48 1021.55 1021.63 1021.72
1006.49 1007.29 1008.32 1009.45 1010.56 1011.56 1012.40 1013.07 1013.58 1013.98 1014.33 1014.69 1015.09 1015.54 1016.04 1016.57 1017.11 1017.62 1018.08 1018.49 1018.85 1019.17 1019.45 1019.72 1019.98 1020.23 1020.49 1020.74 1020.97 1021.17 1021.34 1021.48 1021.58 1021.65 1021.69 1021.72 1021.74 1021.77 1021.81 1021.87 1021.94 1022.01 1022.07
1006.06 1006.79 1007.80 1008.98 1010.17 1011.26 1012.20 1012.93 1013.49 1013.91 1014.26 1014.60 1014.98 1015.43 1015.95 1016.51 1017.09 1017.64 1018.15 1018.59 1018.95 1019.25 1019.50 1019.73 1019.95 1020.18 1020.43 1020.69 1020.95 1021.20 1021.43 1021.63 1021.78 1021.90 1021.99 1022.06 1022.12 1022.18 1022.25 1022.33 1022.40 1022.47 1022.51
1005.78 1006.36 1007.30 1008.45 1009.66 1010.82 1011.83 1012.64 1013.26 1013.74 1014.12 1014.48 1014.88 1015.35 1015.89 1016.49 1017.11 1017.71 1018.24 1018.70 1019.06 1019.34 1019.57 1019.75 1019.94 1020.14 1020.37 1020.63 1020.92 1021.21 1021.49 1021.73 1021.95 1022.12 1022.27 1022.39 1022.50 1022.60 1022.71 1022.81 1022.91 1022.98 1023.02
1005.67 1006.06 1006.84 1007.91 1009.09 1010.26 1011.31 1012.19 1012.89 1013.44 1013.89 1014.32 1014.77 1015.29 1015.87 1016.52 1017.18 1017.81 1018.37 1018.84 1019.20 1019.47 1019.66 1019.81 1019.96 1020.14 1020.35 1020.61 1020.90 1021.21 1021.52 1021.81 1022.07 1022.30 1022.49 1022.66 1022.82 1022.97 1023.12 1023.27 1023.39 1023.48 1023.53
1005.75 1005.90 1006.49 1007.41 1008.50 1009.62 1010.68 1011.61 1012.39 1013.03 1013.57 1014.09 1014.63 1015.22 1015.87 1016.57 1017.27 1017.94 1018.53 1019.00 1019.36 1019.62 1019.79 1019.92 1020.04 1020.19 1020.39 1020.63 1020.92 1021.23 1021.56 1021.87 1022.16 1022.42 1022.66 1022.87 1023.08 1023.27 1023.47 1023.65 1023.82 1023.94 1024.01
1006.02 1005.93 1006.29 1007.01 1007.95 1008.98 1010.00 1010.94 1011.77 1012.50 1013.15 1013.78 1014.42 1015.11 1015.85 1016.61 1017.36 1018.06 1018.67 1019.16 1019.53 1019.78 1019.95 1020.07 1020.18 1020.32 1020.50 1020.72 1021.00 1021.30 1021.62 1021.93 1022.23 1022.51 1022.76 1023.01 1023.26 1023.50 1023.73 1023.96 1024.16 1024.31 1024.41
Thickness
5733 5734 5732 5731 5730 5729 5727 5727 5726 5725 5725 5725 5725 5724 5724 5724 5724 5723 5723 5723 5723 5723 5722 5722 5722 5722 5721 5721 5721 5721 5721 5721 5721 5721 5721 5720 5721 5721 5720 5720 5720 5719 5719
5732 5731 5729 5728 5727 5725 5724 5723 5722 5722 5721 5721 5721 5721 5720 5720 5720 5719 5719 5719 5719 5719 5719 5718 5718 5717 5717 5717 5716 5716 5716 5716 5716 5716 5716 5716 5716 5716 5716 5716 5715 5715 5714
5730 5727 5725 5724 5723 5722 5721 5720 5719 5718 5717 5717 5717 5717 5716 5716 5716 5716 5715 5715 5715 5715 5714 5714 5713 5713 5712 5712 5711 5711 5711 5712 5712 5712 5712 5712 5712 5711 5711 5711 5711 5710 5709
5726 5724 5721 5720 5719 5718 5717 5716 5715 5714 5713 5713 5713 5713 5712 5712 5712 5712 5711 5710 5710 5710 5709 5709 5709 5708 5707 5707 5707 5707 5707 5707 5707 5707 5707 5707 5706 5706 5706 5706 5705 5705 5704
5721 5719 5717 5715 5714 5714 5713 5712 5711 5710 5709 5709 5708 5708 5708 5707 5707 5707 5706 5706 5705 5705 5704 5704 5704 5703 5702 5702 5702 5702 5702 5702 5702 5702 5701 5701 5700 5700 5700 5700 5699 5699 5698
5715 5714 5712 5710 5709 5709 5708 5707 5706 5705 5705 5704 5704 5704 5703 5702 5702 5702 5701 5701 5701 5700 5699 5699 5698 5698 5697 5697 5696 5696 5696 5697 5697 5697 5696 5695 5695 5694 5694 5694 5693 5693 5692
5708 5708 5706 5705 5704 5704 5703 5702 5702 5701 5700 5699 5699 5699 5698 5697 5697 5697 5696 5696 5696 5695 5695 5694 5693 5692 5692 5691 5691 5691 5691 5691 5691 5691 5690 5689 5689 5689 5688 5687 5687 5687 5686
5702 5702 5700 5699 5699 5698 5698 5698 5697 5696 5696 5695 5694 5694 5693 5693 5692 5692 5691 5690 5690 5690 5689 5688 5688 5687 5686 5685 5685 5685 5685 5685 5686 5685 5684 5683 5683 5683 5682 5682 5681 5680 5681
5695 5695 5694 5693 5693 5692 5692 5692 5692 5691 5691 5690 5690 5689 5688 5687 5687 5686 5685 5685 5685 5684 5683 5683 5682 5681 5680 5680 5679 5679 5680 5680 5680 5679 5678 5677 5677 5677 5676 5676 5675 5675 5675
5687 5687 5686 5687 5687 5686 5686 5686 5686 5686 5686 5685 5684 5683 5683 5682 5681 5681 5680 5679 5679 5678 5678 5677 5676 5675 5675 5674 5674 5674 5674 5674 5673 5673 5672 5671 5671 5671 5670 5670 5670 5670 5669
5677 5679 5679 5680 5680 5680 5680 5680 5680 5680 5680 5679 5679 5678 5677 5676 5676 5675 5674 5673 5673 5672 5671 5671 5670 5670 5669 5668 5668 5668 5668 5668 5668 5667 5666 5665 5665 5665 5665 5664 5664 5664 5664
5667 5670 5671 5672 5673 5674 5674 5673 5673 5674 5673 5673 5673 5672 5672 5671 5670 5670 5669 5668 5667 5666 5665 5665 5664 5664 5663 5662 5662 5662 5662 5662 5662 5661 5660 5660 5659 5659 5659 5659 5659 5658 5658
5660 5661 5663 5665 5666 5666 5667 5667 5667 5667 5667 5667 5667 5666 5666 5665 5664 5663 5663 5661 5661 5660 5659 5658 5658 5658 5657 5657 5656 5656 5656 5656 5656 5655 5654 5654 5653 5653 5653 5653 5653 5653 5653
5652 5653 5655 5658 5659 5659 5659 5660 5661 5661 5661 5661 5661 5661 5660 5659 5658 5657 5656 5656 5655 5654 5653 5652 5652 5652 5651 5651 5650 5650 5650 5650 5649 5648 5647 5647 5647 5647 5647 5647 5647 5648 5647
5643 5645 5646 5649 5650 5651 5652 5652 5653 5654 5654 5654 5654 5654 5654 5653 5652 5651 5650 5649 5649 5648 5647 5646 5645 5645 5645 5644 5644 5643 5643 5643 5643 5642 5641 5641 5641 5641 5641 5641 5641 5642 5641
5635 5636 5638 5640 5642 5643 5644 5644 5646 5647 5648 5647 5647 5647 5647 5647 5646 5645 5644 5643 5642 5641 5641 5640 5639 5638 5637 5637 5636 5636 5636 5636 5635 5635 5634 5634 5634 5634 5634 5634 5635 5635 5635
5627 5628 5629 5631 5633 5634 5636 5636 5637 5639 5640 5640 5640 5640 5640 5640 5639 5639 5638 5636 5635 5635 5634 5633 5632 5631 5630 5629 5628 5628 5628 5628 5627 5628 5627 5627 5627 5627 5627 5627 5628 5628 5628
5618 5619 5620 5622 5623 5625 5627 5627 5628 5629 5631 5631 5631 5632 5632 5632 5632 5631 5630 5629 5628 5628 5627 5626 5625 5623 5622 5621 5620 5620 5620 5620 5620 5620 5620 5620 5620 5620 5620 5620 5620 5621 5621
5608 5609 5611 5612 5613 5615 5617 5618 5619 5620 5621 5622 5622 5623 5624 5624 5624 5624 5623 5622 5622 5621 5620 5619 5617 5616 5614 5612 5612 5612 5612 5612 5612 5613 5613 5613 5613 5613 5612 5613 5613 5613 5613
5599 5600 5601 5602 5603 5606 5607 5607 5609 5610 5611 5612 5613 5614 5615 5616 5616 5616 5615 5615 5615 5613 5611 5610 5609 5608 5606 5605 5605 5604 5604 5604 5605 5605 5606 5605 5606 5606 5605 5605 5606 5606 5605
5589 5590 5592 5593 5594 5596 5597 5597 5599 5599 5600 5602 5604 5605 5606 5607 5608 5608 5608 5607 5607 5606 5605 5603 5601 5599 5597 5597 5595 5594 5595 5597 5597 5598 5598 5598 5598 5598 5598 5598 5598 5598 5598
5579 5580 5583 5584 5585 5587 5588 5589 5590 5591 5592 5593 5594 5596 5597 5598 5599 5599 5599 5599 5599 5598 5597 5596 5594 5592 5590 5590 5588 5585 5584 5586 5588 5591 5590 5590 5590 5591 5591 5591 5590 5590 5590
5569 5571 5574 5575 5577 5578 5580 5581 5582 5583 5583 5583 5584 5586 5588 5589 5589 5590 5591 5591 5590 5590 5589 5588 5587 5585 5583 5582 5582 5580 5578 5577 5577 5580 5582 5582 5582 5582 5583 5583 5582 5582 5582
5560 5562 5564 5565 5567 5569 5571 5573 5574 5574 5574 5575 5576 5577 5579 5580 5580 5581 5582 5583 5582 5582 5581 5581 5580 5579 5577 5574 5574 5574 5574 5574 5570 5569 5572 5573 5573 5574 5574 5574 5573 5573 5573
5551 5552 5555 5556 5558 5561 5562 5564 5565 5565 5566 5567 5567 5568 5570 5571 5571 5572 5573 5573 5573 5574 5573 5573 5572 5572 5571 5569 5567 5566 5566 5566 5566 5562 5561 5562 5563 5565 5566 5565 5564 5564 5563
5542 5543 5545 5547 5548 5551 5553 5554 5555 5556 5557 5558 5558 5559 5560 5561 5563 5563 5564 5564 5564 5564 5564 5565 5565 5564 5563 5562 5561 5560 5559 5558 5557 5556 5554 5553 5554 5555 5556 5556 5555 5554 5553